Weather in Karlovka

Russia / Saratov Oblast     51°48′03″N   49°30′49″E
temp.,
°C
wind,
m/s
gust,
m/s
humid.,
%
clouds,
%
prec.,
mm/h
press.,
hPa
HPBL,
m
20 january, thu
thu2001:00−5sse5109598 0.6 1019303
04:00−10se379779 0.7 101982
07:00−8se379678 0.1 1020142
10:00−8se379682 0.3 1020186
13:00−8se369583 0.0 1020178
16:00−8sse249660 0.1 1020102
19:00−14se339990 0.0 102132
22:00−13sse229869 0.1 102123
21 january, fri
fri2101:00−16sse2299100 0.0 102124
04:00−17sse229997 0.1 102216
07:00−16ese119983 0.1 10219
10:00−13ese239662 0.2 102275
13:00−10sse359581 0.0 1022155
16:00−11se369628 0.1 1020109
19:00−13sse489767 0.0 1020113
22:00−12sse31097100 0.1 1020162
22 january, sat
sat2201:00−10sse51295100 0.0 1020267
04:00−8sse61491100 0.0 1019383
07:00−7sse61395100 0.5 1019422
10:00−6sse61196100 1.4 1021398
13:00−5sse61195100 0.7 1021424
16:00−4sse61194100 1.3 1022403
19:00−5sse51090100 0.1 1024287
22:00−6se51192100 0.1 1024279
23 january, sun
sun2301:00−7se51193100 0.0 1026333
04:00−8ese41094100 0.0 1027297
07:00−9ese51288100 0.0 1027271
10:00−9ese51284100 0.0 1028299
13:00−8ese61283100 0.0 1029320
16:00−8ese51184100 0.0 1030293
19:00−8ese51284100 0.0 1031279
22:00−9ese51385100 0.0 1032294
24 january, mon
mon2401:00−10ese51387100 0.0 1032255
04:00−11ese61387100 0.0 1033243
07:00−11ese61386100 0.0 1033248
10:00−11ese61485100 0.0 1034265
13:00−10ese51384100 0.0 1034295
16:00−10ese61381100 0.0 1034253
19:00−12ese51380100 0.0 1034211
22:00−13ese51381100 0.0 1034200